Weather History for Sussex, NJ

Change the Weather History Date:

Tuesday, January 31, 2012

  Actual Average Record
Temperature  
Mean Temperature 40 °F -  
Max Temperature 53 °F 34 °F 55 °F (2013)
Min Temperature 28 °F 14 °F -3 °F (1965)
Degree Days  
Heating Degree Days 24    
Moisture  
Dew Point 24 °F    
Average Humidity 57    
Maximum Humidity 76    
Minimum Humidity 37    
Precipitation  
Precipitation 0.00 in - - ()
Sea Level Pressure  
Sea Level Pressure 30.10 in    
Wind  
Wind Speed 2 mph (SW)    
Max Wind Speed 12 mph    
Max Gust Speed 17 mph    
Visibility 10 miles    
Events      
Averages and records for this station are not official NWS values.
T = Trace of Precipitation, MM = Missing Value Source: NWS Daily Summary

Daily Weather History Graph

Daily Weather History Graph

Search for Another Location

Airport:

Trip Planner

Search our weather history database for the weather conditions in past years. The results will help you decide how hot, cold, wet, or windy it might be!

Date:

Astronomy

Jan. 31, 2012 Rise Set
Actual Time 7:11 AM EST 5:13 PM EST
Civil Twilight 6:41 AM EST 5:42 PM EST
Nautical Twilight 6:08 AM EST 6:15 PM EST
Astronomical Twilight 5:36 AM EST 6:48 PM EST
Moon 11:01 AM EST (1/31) 12:56 AM EST (1/31)
Length of Visible Light 11h 00m
Length of Day
10h 02m
First Quarter, 55% of the Moon is Illuminated
Jan 31
First Quarter
Feb 7
Full
Feb 14
Last Quarter
Feb 21
New
Feb 29
First Quarter

Hourly Weather History & Observations

Time (EST) Temp. Windchill Dew Point Humidity Pressure Visibility Wind Dir Wind Speed Gust Speed Precip Events Conditions
12:53 AM 28.9 °F - 19.9 °F 69% 30.22 in 10.0 mi Calm Calm - N/A   Partly Cloudy
1:53 AM 28.0 °F - 19.0 °F 69% 30.20 in 10.0 mi Calm Calm - N/A   Mostly Cloudy
2:53 AM 28.0 °F - 19.9 °F 72% 30.18 in 10.0 mi Calm Calm - N/A   Partly Cloudy
3:53 AM 30.0 °F - 18.0 °F 61% 30.16 in 10.0 mi Calm Calm - N/A   Clear
4:53 AM 30.9 °F - 18.0 °F 59% 30.15 in 10.0 mi Calm Calm - N/A   Clear
5:53 AM 30.9 °F 27.5 °F 17.1 °F 57% 30.14 in 10.0 mi SW 3.5 mph - N/A   Clear
6:53 AM 30.9 °F - 17.1 °F 57% 30.14 in 10.0 mi Calm Calm - N/A   Clear
7:53 AM 30.9 °F 27.5 °F 18.0 °F 59% 30.16 in 10.0 mi SW 3.5 mph - N/A   Clear
8:53 AM 35.1 °F 31.0 °F 19.9 °F 54% 30.15 in 10.0 mi Variable 4.6 mph - N/A   Clear
9:53 AM 39.9 °F 34.5 °F 21.0 °F 47% 30.14 in 10.0 mi SW 8.1 mph - N/A   Clear
10:53 AM 41.0 °F 35.8 °F 21.9 °F 47% 30.13 in 10.0 mi SW 8.1 mph - N/A   Clear
11:53 AM 46.9 °F - 24.1 °F 41% 30.10 in 10.0 mi SW 9.2 mph 17.3 mph N/A   Clear
12:53 PM 50.0 °F - 25.0 °F 38% 30.07 in 10.0 mi SSW 11.5 mph 17.3 mph N/A   Clear
1:53 PM 50.0 °F - 25.0 °F 38% 30.05 in 10.0 mi SW 9.2 mph 17.3 mph N/A   Clear
2:53 PM 52.0 °F - 26.1 °F 37% 30.04 in 10.0 mi SSW 6.9 mph - N/A   Clear
3:53 PM 53.1 °F - 27.0 °F 37% 30.02 in 10.0 mi SW 9.2 mph - N/A   Clear
4:53 PM 52.0 °F - 28.0 °F 40% 30.02 in 10.0 mi Calm Calm - N/A   Clear
5:53 PM 46.0 °F - 28.9 °F 51% 30.04 in 10.0 mi Calm Calm - N/A   Clear
6:53 PM 39.0 °F - 28.9 °F 67% 30.05 in 10.0 mi Calm Calm - N/A   Clear
7:53 PM 39.0 °F - 28.9 °F 67% 30.06 in 10.0 mi Calm Calm - N/A   Overcast
8:53 PM 39.0 °F - 30.9 °F 73% 30.05 in 10.0 mi Calm Calm - N/A   Overcast
9:53 PM 37.0 °F - 30.0 °F 76% 30.04 in 10.0 mi Calm Calm - N/A   Mostly Cloudy
10:53 PM 37.9 °F - 28.9 °F 70% 30.01 in 10.0 mi Calm Calm - N/A   Clear
11:53 PM 37.0 °F 33.3 °F 28.9 °F 73% 30.01 in 10.0 mi SW 4.6 mph - N/A   Mostly Cloudy